Location: The Stocker AstroScience Center
(25.7579°N, 80.3725°W)
Time: 17:06:16
(UTC-04:00)

ISS - All Passes

Search period start: 29 May 2016 00:00
Search period end: 08 June 2016 00:00
Orbit: 402 x 404 km, 51.6° (Epoch: 29 May)

Date Brightness Start Highest point End Pass type
(mag) Time Alt. Az. Time Alt. Az. Time Alt. Az.
29 May - 05:27:24 10° NW 05:30:39 88° SW 05:33:54 10° SE visible
29 May - 20:24:33 10° SW 20:27:44 56° NW 20:30:57 10° NNE daylight
30 May - 04:34:50 10° NNW 04:37:51 35° NE 04:40:52 10° ESE visible
30 May - 06:13:17 10° WSW 06:13:59 10° SW 06:14:40 10° SW daylight
30 May - 19:31:48 10° SSW 19:34:59 52° SE 19:38:10 10° NE daylight
31 May - 03:42:46 10° N 03:44:57 17° NE 03:47:08 10° E night (unlit)
31 May - 05:18:37 10° WNW 05:21:21 25° SW 05:24:04 10° S visible
31 May - 18:39:46 10° S 18:42:17 21° SE 18:44:49 10° ENE daylight
31 May - 20:16:10 10° W 20:18:37 19° NW 20:21:04 10° N daylight
01 Jun - 04:25:25 10° NW 04:28:38 65° SW 04:31:50 10° SSE night (unlit)
01 Jun - 19:22:36 10° WSW 19:25:42 42° NW 19:28:49 10° NNE daylight
02 Jun - 03:32:41 10° NNW 03:35:49 45° NE 03:38:57 10° ESE night (unlit)
02 Jun - 18:29:39 10° SW 18:32:53 71° SE 18:36:07 10° NE daylight
03 Jun - 02:40:24 10° N 02:42:55 20° NE 02:45:25 10° E night (unlit)
03 Jun - 04:16:48 10° WNW 04:19:13 19° SW 04:21:37 10° S night (unlit)
03 Jun - 17:37:20 10° S 17:40:08 26° SE 17:42:56 10° ENE daylight
03 Jun - 19:14:27 10° W 19:16:33 16° NW 19:18:38 10° N daylight
04 Jun - 01:49:22 10° NNE 01:49:53 10° NE 01:50:24 10° NE night (unlit)
04 Jun - 03:23:20 10° NW 03:26:29 48° SW 03:29:37 10° SSE night (unlit)
04 Jun - 16:46:19 10° SE 16:47:26 11° SE 16:48:32 10° ESE daylight
04 Jun - 18:20:36 10° WSW 18:23:34 33° NW 18:26:34 10° NNE daylight
05 Jun - 02:30:27 10° NW 02:33:40 60° NE 02:36:52 10° SE night (unlit)
05 Jun - 17:27:26 10° SW 17:30:41 86° NW 17:33:56 10° NE daylight
06 Jun - 01:37:59 10° NNW 01:40:45 25° NE 01:43:29 10° ESE night (unlit)
06 Jun - 03:14:59 10° W 03:16:58 15° SW 03:18:57 10° SSW night (unlit)
06 Jun - 16:34:53 10° SSW 16:37:52 34° SE 16:40:52 10° ENE daylight
06 Jun - 18:12:44 10° WNW 18:14:22 13° NW 18:15:59 10° N daylight
07 Jun - 00:46:13 10° NNE 00:47:42 12° NE 00:49:11 10° ENE night (unlit)
07 Jun - 02:21:11 10° WNW 02:24:13 36° SW 02:27:14 10° SSE night (unlit)
07 Jun - 15:43:15 10° SSE 15:45:07 14° SE 15:46:59 10° E daylight
07 Jun - 17:18:31 10° WSW 17:21:19 26° NW 17:24:08 10° NNE daylight
